Wind_Speed
4 5 5 5 5 5 6 6 7 7 6 6 5 4 4 4 3 2 1 1 1 1 1 2 2 2 3 3 4 5 5 6 6 6 6 7 8 8 9 9 9 9 9
2 4 4 3 3 3 4 5 6 6 5 5 4 4 3 3 3 2 1 1 1 2 2 3 4 4 4 4 5 6 6 6 7 7 7 8 9 9 10 10 10 10 10
3 2 2 2 1 3 3 4 4 4 4 4 4 4 3 3 2 2 2 2 3 3 4 4 5 6 6 6 6 7 7 8 8 8 9 9 9 10 10 11 12 12 12
5 4 3 2 2 2 2 2 2 3 2 2 2 2 3 3 3 3 3 4 4 5 6 6 6 7 7 7 7 7 8 8 8 9 9 9 10 10 10 10 11 11 11
8 7 6 5 4 4 4 3 3 3 3 3 3 3 3 4 4 5 5 6 7 8 8 8 8 8 8 8 9 9 9 9 9 9 10 10 10 10 11 11 11 12 12
11 10 9 8 6 6 6 6 5 6 6 6 6 6 6 6 6 6 7 8 9 10 10 10 10 10 10 10 10 10 10 11 11 11 11 12 12 12 12 12 12 13 13
13 11 10 10 9 9 8 9 9 9 9 9 9 9 9 9 8 8 9 10 11 12 12 11 11 11 12 12 11 11 11 12 12 12 12 12 13 13 13 13 13 14 14
15 13 12 12 11 11 10 10 11 11 12 12 12 12 12 12 12 12 12 12 12 13 13 13 13 13 14 13 13 12 12 13 13 13 13 13 13 14 14 15 15 15 15
17 16 15 15 15 14 13 12 13 13 14 14 15 14 15 15 15 15 15 15 15 15 15 15 15 16 16 16 15 15 14 14 14 14 14 14 14 15 16 16 16 16 16
19 19 18 18 17 18 17 16 16 16 17 17 17 17 18 18 18 16 16 17 17 17 17 18 18 18 17 17 17 16 16 15 15 15 15 16 16 17 17 17 17 17 16
20 21 21 20 20 20 20 19 19 20 20 20 19 19 20 21 20 19 19 19 19 19 19 19 19 19 18 17 17 17 17 17 17 17 17 18 18 18 18 18 18 18 18
22 23 23 23 23 22 22 21 21 21 22 21 21 21 21 21 21 21 21 20 20 21 21 21 21 20 20 20 19 19 19 19 19 19 19 19 20 20 19 19 19 20 20
24 25 25 25 25 24 24 23 22 22 23 23 23 22 22 22 22 23 23 23 23 23 23 23 23 22 21 21 21 22 22 22 22 22 22 21 21 21 21 21 21 21 21
25 26 27 27 27 27 26 25 24 23 23 24 24 24 24 24 25 25 25 25 26 26 26 25 24 23 23 23 24 25 25 24 24 24 24 24 23 22 23 23 23 23 22
27 27 28 28 28 29 28 26 26 26 25 25 25 25 26 26 26 27 28 27 27 28 29 28 27 26 25 25 26 27 27 26 26 26 27 26 25 25 25 25 25 25 24
28 28 28 29 29 29 28 28 28 28 27 27 27 28 29 29 28 29 30 29 29 30 29 29 29 28 27 28 29 29 28 28 28 28 28 27 27 27 27 27 27 27 26
29 29 30 30 30 29 29 30 30 29 29 29 29 30 30 30 30 31 31 32 31 31 30 30 30 30 30 31 31 32 31 31 31 31 30 29 29 29 30 29 29 28 28
30 30 30 30 30 30 31 32 32 31 32 32 32 32 32 32 32 33 33 32 31 31 31 31 32 33 33 33 34 34 33 33 33 33 34 32 31 32 31 31 31 31 31
32 32 32 32 32 31 32 32 32 34 34 34 33 32 33 33 33 34 33 33 33 33 33 33 33 34 34 34 33 34 34 34 35 34 34 34 33 33 33 33 33 33 33
35 34 34 35 35 35 35 35 34 35 36 35 34 33 34 35 34 34 34 34 34 34 34 34 34 34 34 34 34 34 35 35 35 35 35 35 35 35 35 34 33 34 34
36 36 36 36 36 36 35 36 36 35 36 36 35 35 35 35 34 34 35 35 35 35 34 35 35 35 34 34 34 34 34 35 36 36 36 35 35 35 36 36 35 35 35
36 37 38 38 38 36 35 36 36 36 36 36 36 36 35 35 36 36 36 36 36 36 36 35 35 36 35 34 34 34 34 35 35 36 36 36 35 36 36 36 36 36 36
38 38 39 39 37 36 36 36 36 36 36 37 37 36 35 36 37 37 36 36 36 37 36 35 35 35 35 34 33 34 34 35 35 35 35 35 35 35 35 36 36 37 36
38 38 38 38 37 37 36 35 35 35 35 36 37 37 37 36 36 36 36 36 36 36 36 36 35 34 34 33 34 34 35 36 36 35 35 35 36 36 35 36 37 37 37
37 37 36 36 35 36 36 36 36 36 37 37 38 38 37 37 36 36 36 36 36 36 36 35 34 34 34 33 34 35 36 36 36 36 36 35 36 36 36 36 36 36 37
37 36 36 35 35 35 35 35 35 36 36 36 36 37 37 37 37 37 36 36 36 36 36 35 35 34 34 33 33 34 34 35 35 36 36 36 37 37 36 35 36 37 37
Wind_Direction
26 25 35 40 42 54 61 66 72 70 77 80 80 82 76 75 74 81 74 79 13 2 333 318 298 285 287 282 273 274 280 282 279 273 268 267 269 271 271 271 275 280 283
356 358 8 26 39 45 56 60 68 62 63 64 62 65 60 56 51 47 38 351 321 319 307 298 298 294 289 288 285 281 277 281 279 278 277 274 278 276 272 273 276 280 284
263 303 325 336 359 10 35 45 45 43 51 53 50 46 40 31 16 355 338 323 309 307 305 297 295 294 290 292 293 290 279 278 276 276 279 281 284 281 277 279 277 279 282
254 269 278 284 298 302 318 332 346 358 3 5 6 8 8 1 345 328 317 316 311 306 300 296 293 293 292 291 292 292 289 282 281 280 280 283 284 284 284 283 283 282 282
251 259 263 257 261 263 280 288 295 304 311 318 321 319 321 327 324 312 303 302 303 303 301 296 293 288 286 286 288 290 290 288 286 283 283 282 284 284 284 283 284 281 279
254 253 256 257 258 259 266 264 277 283 288 292 296 298 296 300 303 301 296 294 295 295 295 292 287 286 283 283 285 288 287 285 285 284 285 285 286 285 286 282 282 282 279
255 252 254 257 260 265 268 264 267 273 277 281 284 284 285 287 289 290 292 293 291 289 290 290 287 286 285 285 285 288 287 283 284 284 286 288 287 286 286 285 282 280 278
256 255 254 257 259 260 263 264 268 269 271 274 274 276 278 280 281 283 285 288 289 288 290 290 288 286 286 284 285 288 287 284 282 283 284 287 286 284 283 283 282 279 278
256 254 252 253 256 257 261 265 268 271 271 272 272 271 273 275 276 279 281 283 286 286 287 285 285 285 284 283 285 285 286 286 285 283 283 285 286 284 283 283 281 279 277
255 257 255 253 255 256 260 266 271 272 273 273 274 272 273 273 274 276 279 281 282 282 284 283 284 286 285 282 282 283 283 288 288 288 290 290 290 286 284 282 280 279 278
257 259 258 257 259 260 260 264 269 270 272 273 271 271 274 274 276 274 274 277 279 279 279 281 283 282 282 282 282 284 284 285 284 284 284 285 287 286 283 280 279 278 278
260 261 260 260 259 261 261 263 266 269 269 271 271 272 274 275 276 274 273 275 277 278 278 278 278 279 277 277 280 283 284 284 283 282 280 281 283 284 282 279 278 278 278
263 261 260 261 259 258 260 261 265 267 267 269 270 270 272 272 271 271 273 274 275 276 276 278 277 277 276 276 277 278 280 282 282 281 279 279 279 278 278 278 277 278 277
265 263 261 262 261 260 259 260 261 264 267 268 268 269 269 269 269 270 273 274 273 274 276 277 275 276 277 277 277 277 278 279 280 279 279 278 276 277 277 276 276 275 276
263 264 263 262 261 260 261 260 261 262 264 265 266 267 268 269 270 271 273 273 273 275 275 274 274 274 275 277 277 278 277 278 279 279 277 275 274 275 275 275 274 274 274
265 264 265 265 264 262 261 260 260 261 263 264 265 267 270 270 271 272 274 274 274 274 277 275 275 274 276 277 278 277 277 275 275 276 276 274 273 273 274 273 273 272 273
268 266 266 267 267 264 261 261 260 261 263 265 267 269 270 271 273 273 274 274 274 275 277 277 277 275 276 276 276 276 275 275 275 274 274 272 271 272 273 273 272 272 273
269 270 269 266 264 264 263 262 260 261 263 266 267 269 271 273 273 274 276 276 277 278 278 277 277 276 276 276 277 274 273 273 274 274 272 272 271 272 273 273 272 271 272
268 269 270 268 266 266 266 266 266 264 264 267 269 271 271 273 273 274 277 278 279 278 276 277 277 278 277 279 279 275 274 273 274 275 276 274 274 274 271 270 270 270 270
267 268 269 269 269 270 269 268 269 268 268 269 270 271 272 272 274 275 278 278 279 278 276 276 276 277 278 278 279 276 273 274 274 275 276 276 273 273 272 270 270 271 270
268 269 269 270 271 272 273 270 271 270 268 269 270 270 271 272 274 275 276 278 279 278 277 277 277 277 277 278 278 276 274 274 274 275 276 277 275 273 272 271 271 270 270
267 269 271 271 272 272 272 271 270 270 270 269 269 270 271 272 273 274 276 277 278 277 276 277 278 278 277 276 276 276 275 275 275 275 276 276 275 274 273 271 270 270 269
267 269 271 272 271 272 273 272 271 270 269 269 271 272 271 272 274 275 276 276 277 277 277 278 280 280 277 275 275 275 275 275 276 276 275 274 273 273 273 271 270 270 269
268 269 270 271 272 272 274 271 270 270 270 270 271 271 271 272 273 274 276 277 276 276 276 277 278 278 278 277 275 275 274 274 274 275 274 273 273 272 272 270 268 269 269
268 269 270 271 272 272 273 272 272 273 272 273 272 271 271 272 273 274 275 276 275 274 275 276 277 278 277 278 277 275 274 274 274 273 273 272 272 273 273 273 272 272 272
267 268 270 272 273 273 272 273 273 273 271 272 271 269 270 271 271 272 274 275 274 274 275 275 275 277 278 278 278 277 275 274 273 272 271 272 272 273 273 273 274 274 274
Height
5897 5896 5895 5895 5894 5894 5894 5893 5893 5892 5892 5891 5891 5891 5891 5892 5892 5892 5892 5892 5892 5892 5892 5891 5891 5891 5891 5890 5890 5890 5890 5891 5890 5891 5892 5892 5892 5892 5892 5892 5892 5892 5891
5897 5896 5895 5895 5894 5894 5894 5894 5894 5893 5893 5893 5892 5892 5892 5892 5893 5892 5892 5892 5892 5891 5891 5891 5891 5891 5890 5890 5890 5889 5889 5889 5889 5890 5890 5890 5891 5890 5890 5890 5890 5889 5889
5896 5895 5895 5894 5894 5893 5894 5894 5894 5894 5894 5893 5893 5893 5893 5893 5893 5893 5892 5892 5892 5891 5891 5890 5890 5890 5889 5889 5889 5888 5888 5888 5888 5888 5889 5888 5888 5887 5888 5887 5887 5887 5887
5894 5894 5894 5893 5893 5894 5894 5893 5893 5894 5893 5893 5893 5893 5892 5892 5892 5892 5892 5892 5891 5891 5890 5890 5889 5889 5888 5888 5887 5887 5886 5886 5886 5886 5886 5886 5886 5885 5885 5885 5884 5884 5884
5893 5892 5892 5892 5892 5892 5892 5892 5892 5893 5893 5893 5893 5892 5892 5892 5891 5891 5891 5891 5890 5890 5889 5888 5888 5887 5887 5886 5886 5885 5885 5884 5884 5884 5884 5884 5883 5883 5882 5882 5882 5881 5881
5890 5890 5890 5890 5890 5890 5891 5891 5891 5891 5891 5891 5891 5891 5890 5890 5890 5890 5890 5889 5889 5888 5887 5886 5886 5885 5884 5884 5883 5883 5883 5882 5882 5882 5881 5881 5881 5880 5879 5879 5878 5878 5878
5887 5887 5887 5887 5887 5887 5888 5888 5888 5888 5888 5889 5889 5888 5888 5888 5888 5888 5887 5887 5886 5885 5885 5884 5883 5882 5882 5881 5881 5880 5880 5880 5879 5879 5879 5878 5878 5877 5876 5876 5875 5875 5874
5884 5884 5884 5884 5884 5884 5885 5885 5885 5885 5885 5885 5885 5885 5885 5885 5885 5885 5884 5884 5883 5882 5881 5881 5880 5880 5879 5878 5878 5877 5877 5877 5876 5876 5875 5875 5874 5873 5873 5872 5872 5871 5871
5879 5880 5880 5881 5881 5881 5881 5881 5881 5881 5881 5881 5881 5881 5881 5881 5881 5881 5881 5880 5880 5879 5878 5877 5877 5876 5876 5875 5874 5874 5874 5873 5873 5872 5871 5871 5870 5869 5868 5868 5868 5867 5867
5874 5875 5875 5876 5876 5876 5876 5876 5877 5877 5876 5876 5876 5876 5876 5877 5877 5877 5877 5876 5876 5875 5874 5873 5873 5873 5872 5872 5871 5870 5870 5869 5868 5868 5867 5867 5866 5865 5864 5863 5863 5862 5862
5869 5869 5870 5870 5871 5870 5870 5871 5871 5871 5871 5871 5871 5871 5871 5871 5871 5872 5871 5871 5871 5870 5870 5869 5869 5868 5868 5867 5866 5866 5866 5865 5864 5863 5863 5862 5861 5860 5859 5858 5858 5857 5857
5862 5863 5863 5864 5864 5864 5864 5865 5865 5865 5865 5865 5865 5865 5865 5865 5865 5865 5865 5866 5865 5865 5865 5864 5863 5862 5862 5862 5861 5861 5861 5860 5860 5858 5858 5857 5856 5855 5854 5853 5853 5852 5852
5855 5855 5856 5857 5857 5858 5858 5858 5859 5859 5859 5858 5858 5858 5859 5859 5859 5859 5859 5859 5859 5859 5859 5858 5857 5856 5856 5855 5855 5855 5855 5854 5854 5853 5852 5851 5850 5849 5848 5848 5847 5846 5846
5847 5848 5849 5849 5850 5851 5851 5851 5852 5851 5851 5851 5852 5852 5852 5852 5852 5852 5852 5852 5852 5852 5852 5851 5851 5851 5850 5849 5849 5848 5848 5847 5847 5846 5845 5844 5843 5843 5842 5841 5841 5840 5839
5839 5840 5841 5841 5842 5842 5843 5844 5844 5844 5844 5844 5844 5844 5844 5844 5845 5845 5845 5844 5844 5844 5844 5844 5844 5843 5843 5842 5841 5841 5840 5840 5839 5838 5838 5837 5836 5835 5835 5834 5834 5833 5833
5831 5832 5833 5833 5833 5834 5835 5836 5837 5837 5837 5837 5837 5837 5836 5836 5837 5837 5837 5836 5836 5836 5836 5836 5835 5835 5834 5834 5833 5832 5832 5831 5830 5830 5829 5829 5828 5827 5827 5826 5826 5826 5825
5823 5824 5824 5824 5825 5825 5826 5827 5828 5829 5829 5829 5829 5829 5828 5828 5828 5828 5828 5828 5828 5827 5827 5827 5826 5826 5826 5825 5824 5823 5823 5822 5822 5821 5820 5820 5820 5819 5819 5818 5818 5817 5817
5815 5815 5815 5816 5816 5817 5817 5818 5819 5820 5821 5821 5820 5820 5820 5820 5819 5819 5819 5818 5818 5818 5818 5818 5817 5816 5816 5815 5814 5813 5812 5812 5812 5811 5811 5811 5811 5810 5809 5809 5809 5809 5809
5806 5806 5807 5807 5808 5808 5808 5809 5809 5810 5811 5811 5811 5811 5810 5810 5810 5810 5809 5809 5809 5808 5808 5808 5807 5806 5806 5805 5803 5802 5802 5802 5801 5802 5801 5801 5801 5801 5800 5799 5799 5799 5799
5796 5796 5797 5797 5798 5799 5799 5799 5799 5800 5800 5801 5801 5801 5800 5800 5800 5800 5800 5799 5798 5798 5797 5797 5796 5796 5795 5794 5793 5791 5791 5791 5791 5791 5791 5790 5790 5790 5789 5789 5789 5789 5789
5785 5786 5787 5787 5788 5788 5788 5788 5788 5789 5789 5789 5790 5790 5790 5790 5790 5790 5789 5788 5788 5787 5787 5786 5786 5785 5785 5784 5783 5782 5781 5781 5781 5781 5781 5780 5779 5779 5779 5779 5779 5779 5778
5775 5776 5776 5776 5777 5777 5777 5777 5777 5778 5778 5778 5779 5779 5779 5779 5779 5779 5778 5777 5777 5776 5776 5775 5775 5774 5773 5773 5772 5772 5771 5771 5771 5771 5770 5769 5768 5768 5768 5768 5768 5768 5767
5765 5765 5765 5766 5766 5765 5765 5766 5766 5766 5767 5767 5768 5768 5768 5768 5768 5767 5767 5766 5765 5765 5764 5764 5764 5763 5762 5762 5761 5761 5761 5760 5760 5759 5759 5758 5758 5757 5757 5757 5756 5756 5756
5755 5755 5755 5755 5755 5755 5754 5755 5755 5755 5755 5756 5756 5756 5756 5756 5756 5755 5755 5754 5754 5754 5753 5753 5753 5752 5751 5751 5751 5750 5750 5749 5748 5748 5747 5747 5746 5746 5745 5745 5745 5744 5744
5744 5744 5745 5745 5745 5745 5745 5744 5744 5744 5745 5745 5744 5744 5745 5745 5745 5744 5744 5743 5743 5743 5743 5742 5742 5741 5741 5741 5740 5739 5738 5737 5737 5736 5735 5735 5735 5734 5734 5734 5733 5733 5733
5734 5734 5735 5735 5735 5734 5734 5734 5733 5733 5733 5733 5733 5733 5733 5734 5734 5733 5733 5732 5732 5731 5731 5731 5731 5731 5731 5730 5729 5728 5727 5726 5725 5724 5724 5724 5723 5723 5723 5722 5722 5721 5721